Regional Weather Roundup
Issued by NWS Grand Forks, ND

Home | Current Version | Previous Version | Graphics & Text | Print | Product List | Glossary On
Versions: 1 2 3 4 5 6 7 8 9 10 11 12 13 14 15 16 17 18 19 20 21 22 23 24 25 26 27 28 29 30 31 32 33 34 35 36 37 38 39 40 41 42 43 44 45 46 47 48 49 50
000
ASUS43 KFGF 291531
RWRFGF
PRAIRIE TO PINES  WEATHER ROUNDUP
NATIONAL WEATHER SERVICE EASTERN NORTH DAKOTA/GRAND FORKS ND
1000 AM CDT MON MAY 29 2017

 **SATELLITE DATA USED TO AUGMENT SKY COVER AT AUTOMATED STATIONS**
 *****  WEATHER ACROSS EASTERN NORTH DAKOTA  *****

CITY           SKY/WX    TMP DP  RH WIND       PRES   REMARKS
GRAND FORKS    PTSUNNY   54  50  86 NW14      29.86S
GRAND FRKS AFB CLOUDY    52  52 100 NW15      29.87S
DEVILS LAKE    CLOUDY    54  47  77 NW18G24   29.92S
FARGO          LGT RAIN  53  50  89 NW15      29.87R
WAHPETON ARPT  CLOUDY    54  46  76 NW18G25   29.88R
$$

 ***** WEATHER ACROSS CENTRAL AND WESTERN NORTH DAKOTA  *****

CITY           SKY/WX    TMP DP  RH WIND       PRES   REMARKS
BISMARCK       PTSUNNY   59  44  57 NW16G26   30.04S
MINOT          CLOUDY    57  45  64 NW23G31   30.02S
JAMESTOWN      CLOUDY    51  47  86 NW18G28   29.94R
MINOT AFB      CLOUDY    55  44  64 NW22G29   30.00F
GARRISON         N/A     54  43  66 NW23G33   30.04S
WILLISTON      FAIR      57  42  57 NW16      30.14R
DICKINSON      FAIR      54  40  59 NW17G25   30.10S
HETTINGER      FAIR      57  39  51 NW20G28   30.13S
$$

 *****  OTHER AIRPORT OBSERVATIONS IN OUR AREA  *****

CITY           SKY/WX    TMP DP  RH WIND       PRES   REMARKS
WALHALLA       NOT AVBL
GRAFTON AIRPOR CLOUDY    52  52 100 NW14G23   29.87F
VALLEY CITY AR LGT RAIN  52  50  93 N21G29    29.93R
CANDO          NOT AVBL
CAVALIER APRT  CLOUDY    52  50  93 NW15      29.85F
GWINNER        PTSUNNY   50  50 100 MISG      29.92R FOG
SHEYENNE NWR     N/A     54  48  80 N10       29.95S
ROLLA          PTSUNNY   54  45  71 NW26G36   29.93S
 ***** THE ABOVE OBSERVATIONS ARE NON NWS ARE NOT QUALITY
       CONTROLLED AND MAY MIS-REPORT RAIN FOR SNOW...
$$

  *****  WEATHER ACROSS NORTHERN MINNESOTA  *****

CITY           SKY/WX    TMP DP  RH WIND       PRES   REMARKS
FLAG ISLAND    CLOUDY    48  43  81 NW23      29.73R
WARROAD        CLOUDY    48  45  87 NW14G22   29.77S
ROSEAU         CLOUDY    50  43  76 NW14G22   29.79S
HALLOCK        CLOUDY    52  46  82 N16       29.84R
THF RVR FALLS  CLOUDY    48  43  81 NW16      29.83R
BAUDETTE       CLOUDY    50  46  86 NW22G29   29.73S
WASKISH        CLOUDY    50  46  87 W13G20    29.75R
CROOKSTON      PTSUNNY   48  46  93 N23G30    29.85S
STEPHEN NDAWN    N/A     52  45  76 NW15        N/A
GREENBUSH NDAW   N/A     48  45  87 NW15        N/A
$$
  *****  WEATHER ACROSS CENTRAL AND WEST MINNESOTA  *****

CITY           SKY/WX    TMP DP  RH WIND       PRES   REMARKS
FOSSTON        CLOUDY    48  45  87 NW15G21   29.81S
BEMIDJI        CLOUDY    50  45  82 W16       29.77S
PARK RAPIDS    CLOUDY    53  43  68 NW18G28   29.79R
ELBOW LAKE     CLOUDY    52  49  89 W20       29.86S
WADENA         CLOUDY    52  46  82 NW15      29.81R
DETROIT LAKES  CLOUDY    50  46  87 NW17G23   29.85R
MOORHEAD       DRIZZLE   52  48  87 NW18G24   29.88R
FERGUS FALLS   CLOUDY    52  52 100 N17G25    29.85S
MORRIS MN      PTSUNNY   57  48  72 NW21G28   29.86R
STAPLES        CLOUDY    52  46  82 W16G25    29.79R
$$
  *****  WEATHER ELSEWHERE ACROSS MINNESOTA  *****

CITY           SKY/WX    TMP DP  RH WIND       PRES   REMARKS
DULUTH         CLOUDY    53  47  79 NW18G26   29.67R
INTRNTL FALLS  LGT RAIN  50  48  93 W12       29.68R FOG
ELY            DRIZZLE   52  48  87 W9        29.63S
CLOQUET        CLOUDY    54  45  71 W12G22    29.70R
WHEATON        PTSUNNY   55  46  71 NW15      29.91R
BRAINERD       CLOUDY    53  49  86 NW9       29.77S
HIBBING        LGT RAIN  50  48  93 NW14G21   29.68S
ALEXANDRIA     CLOUDY    54  47  77 NW20G28   29.83S
SAINT CLOUD    CLOUDY    55  50  83 W16       29.79R
MINNEAPOLIS    CLOUDY    58  46  64 NW14G22   29.80R
$$

  *****  WEATHER ACROSS SOUTH DAKOTA  *****

CITY           SKY/WX    TMP DP  RH WIND       PRES   REMARKS
SIOUX FALLS    FAIR      60  47  61 NW22      29.97R
BROOKINGS      CLOUDY    54  47  77 NW18      29.94R
WATERTOWN      CLOUDY    52  46  80 NW18      29.93R
HURON          CLOUDY    58  45  62 NW21G28   29.99R
SISSETON         N/A     53  49  86 N18G29    29.90R
ABERDEEN       PTSUNNY   57  42  57 NW22G31   29.96R
MITCHELL       FAIR      60  44  55 NW24G31   30.01R
PIERRE         FAIR      59  41  51 NW20      30.06S
MOBRIDGE       FAIR      59  41  51 NW23G30   30.02S
RAPID CITY     FAIR      59  36  42 N10       30.17R
$$

  *****  SOME WEATHER IN NEARBY STATES *****

CITY           SKY/WX    TMP DP  RH WIND       PRES   REMARKS
GLASGOW MT     FAIR      56  36  47 NW12      30.22S
GREAT FALLS MT FAIR      57  48  72 S3        30.23F
CHEYENNE WY    FAIR      54  34  46 N6        30.29R
SCOTTSBLUFF NE FAIR      60  45  57 W10       30.21R
OMAHA NE       FAIR      69  48  47 NW8       29.99R
DES MOINES IA  FAIR      70  43  37 NW13      29.93R
DAVENPORT IA   FAIR      66  47  50 NW14      29.87S
CHICAGO IL     FAIR      72  45  37 W15G22    29.81R
EAU CLAIRE WI  CLOUDY    56  47  71 W14       29.75S
LA CROSSE WI   PTSUNNY   63  49  60 W12       29.79S
$$

  *****  SOME NATIONAL WEATHER *****

CITY           SKY/WX    TMP DP  RH WIND       PRES   REMARKS
LA GUARDIA NY  CLOUDY    58  53  84 NE12      29.94R
RALEIGH NC     FAIR      81  63  54 W8        29.95R
ATLANTA GA     FAIR      78  66  66 W8        30.04R
NEW ORLEANS LA CLOUDY    71  69  93 SE12      30.03R
OKLAHOMA CITY  PTSUNNY   77  47  34 SW9       30.08R
ALBUQUERQUE NM FAIR      67  37  33 VRB3      30.23S
SALT LAKE CITY FAIR      65  39  38 E3        30.16S
LOS ANGELES CA CLOUDY    60  57  89 SW5       29.93R
BOISE ID       FAIR      68  44  42 E8        30.12R
SEATTLE WA     FOG       53  51  93 SW7       30.08F VSB 1/2
$$

*** WEATHER ACROSS MANITOBA...SASKATCHEWAN AND ONTARIO ***
                ***ONTARIO***

CITY           SKY/WX    TMP DP  RH WIND       PRES   REMARKS
GERALDTON      PTSUNNY   57  52  82 SW9       29.52S
THUNDER BAY    LGT RAIN  54  52  94 W8        29.55S
SIOUX LOOKOUT  CLOUDY    54  52  94 N7        29.59S
TORONTO        PTSUNNY   72  59  64 W14       29.74R
BIG TROUT LK   LGT RAIN  52  50  93 N8        29.57F
PICKLE LAKE    LGT RAIN  54  52  94 N5        29.55F
DRYDEN         CLOUDY    52  50  93 NW8       29.63R FOG
KENORA         CLOUDY    48  45  87 NW14G21   29.71R
$$
                *** MANITOBA***

CITY           SKY/WX    TMP DP  RH WIND       PRES   REMARKS
BRANDON        LGT RAIN  50  46  87 N15       29.93S
DAUPHIN        PTSUNNY   48  43  81 NW21G29   29.93R
ISLAND LAKE    CLOUDY    41  41 100 NW15      29.76S
PILOT MOUND      N/A     48  45  87 NW17G23     N/A
THE PAS        LGT RAIN  43  37  81 N21G30    30.01R
THOMPSON       LGT RAIN  37  36  93 N10G17    29.91R
WINNIPEG       CLOUDY    48  45  87 N16G23    29.84S
LYNN LAKE      LGT RAIN  41  39  93 N14G22    30.06S
CHURCHILL      CLOUDY    36  34  93 N16G23    29.93S
GILLAM         CLOUDY    37  34  87 N10       29.83S
$$
                ***SASKATCHEWAN***

CITY           SKY/WX    TMP DP  RH WIND       PRES   REMARKS
ESTEVAN        PTSUNNY   54  43  66 NW21      30.08S
KINDERSLEY     MOSUNNY   55  32  41 NE2       30.24S
LLOYDMINSTER   SUNNY     57  39  51 NW5       30.24F
PRINCE ALBERT  MOSUNNY   55  39  54 NW13      30.16S
REGINA         PTSUNNY   54  39  58 NW23G30   30.15R
YORKTON          N/A     52  43  71 N23G31    30.02R
N. BATTLEFORD  SUNNY     57  39  51 NW10      30.25S
LA RONGE       PTSUNNY   52  37  58 N10G18    30.17S
SASKATOON      MOSUNNY   55  39  54 NW9G17    30.21S
SWIFT CURRENT  SUNNY     54  34  47 NW13      30.22F
$$
NOTE: THESE ARE AUTOMATED STATIONS WITH LIMITED QUALITY CONTROL
      "FAIR" INDICATES FEW OR NO CLOUDS BELOW 12,000 FEET WITH NO
      SIGNIFICANT WEATHER AND/OR OBSTRUCTIONS TO VISIBILITY.
      SKY/WX - SKY CONDITION AND SIGNIFICANT WEATHER.
      TMP - AIR TEMPERATURE.    DP   - DEWPOINT TEMPERATURE.
      RH  - RELATIVE HUMIDITY.  PRES - PRESSURE.
      HX  - HEAT INDEX.         WCI  - WIND CHILL INDEX.
$




USA.gov is the U.S. government's official web portal to all federal, state and local government web resources and services.